Location: ??
(35.5653°N, 139.6194°E)
Time: 06:59:54
(UTC+00:00)

SL-16 R/B - Pass Details

Date: 13 December 2025
Orbit: 841 x 844 km, 71.0° (Epoch: 20 January)

Event Time Altitude Azimuth Distance (km) Brightness Sun altitude
Exits shadow 19:37:25 38° 346° (NNW) 1,260 2.8 -24.7°
Maximum altitude 19:39:40 81° 69° (ENE) 857 2.2 -24.3°
Drops below altitude 10° 19:45:19 10° 157° (SSE) 2,455 5.1 -23.1°
Sets 19:47:45 0° 158° (SSE) 3,386 5.8 -22.7°
